Location: Asheville, NC
(35.6000°N, 82.5500°W)
Time: 15:54:32
(UTC-05:00)

HO-68 - Pass Details

Date: 08 January 2018
Orbit: 1192 x 1205 km, 100.1° (Epoch: 19 January)

Event Time Altitude Azimuth Distance (km) Brightness Sun altitude
Rises 07:02:51 0° 21° (NNE) 4,095 ? -7.8°
Reaches altitude 10° 07:05:35 10° 27° (NNE) 3,128 ? -7.2°
Maximum altitude 07:12:28 49° 100° (E) 1,498 ? -6.0°
Drops below altitude 10° 07:19:18 10° 174° (S) 3,115 ? -4.7°
Sets 07:22:01 0° 180° (S) 4,077 ? -4.2°
